Flag for Netherlands Weather past 2 weeks in Hilversum, Netherlands

Now
46 °F

Passing clouds.


Feels Like: 46 °F
Forecast: 41 / 61 °F
Wind: 2 mph from North

Location: De Bilt


UV Index: 3 (Moderate)

Visibility: 13 mi


Pressure: 30.06 "Hg

Humidity: 76%

Dew point: 38 °F

Location of HilversumLocation

Historic Weather in Hilversum

°F

Hilversum temperature yesterday

Maximum temperature yesterday: 63 °F (at 3:00 PM)
Minimum temperature yesterday: 36 °F (at 2:00 AM)
Average temperature yesterday: 50 °F

Past Weeks' High & Low Weather Summary

 TemperatureHumidityPressure
High69 °F (Apr 7, 5:00 PM)100% (Apr 12, 7:00 AM)30.46 "Hg (Apr 12, 7:00 AM)
Low31 °F (Apr 16, 7:00 AM)35% (Apr 17, 3:00 PM)29.65 "Hg (Apr 3, 10:00 PM)
Average52 °F74%30.08 "Hg
* Reported Apr 3 10:00 PM — Apr 18 10:00 PM, Hilversum, Weather by CustomWeather, © 2014

Note: Actual official high and low records may vary slightly from our data, if they occured in-between our weather recording intervals... More about our weather records

Advertising

Historic Weather Conditions — Data for Previous 24 hours

 ConditionsComfort  
Time TempWeatherWind HumidityBarometerVisibility
10:00 PM
Apr 18
47 °FPassing clouds.3 mph72%30.05 "Hg11 mi
9:00 PM47 °FOvercast.3 mph74%30.05 "Hg9 mi
8:00 PM48 °FOvercast.5 mph72%30.04 "Hg11 mi
7:00 PM49 °FOvercast.6 mph63%30.04 "Hg14 mi
6:00 PM50 °FOvercast.6 mph64%30.04 "Hg14 mi
5:00 PM51 °FOvercast.8 mph58%30.03 "Hg17 mi
4:00 PM53 °FPartly sunny.6 mph58%30.03 "Hg22 mi
3:00 PM51 °FScattered clouds.6 mph68%30.02 "Hg22 mi
2:00 PM50 °FRain showers. Overcast.6 mph66%30.03 "Hg16 mi
1:00 PM52 °FOvercast.6 mph58%30.02 "Hg22 mi
12:00 PM51 °FPartly sunny.6 mph58%30.01 "Hg22 mi
11:00 AM51 °FPartly sunny.6 mph53%30.01 "Hg16 mi
10:00 AM48 °FOvercast.6 mph67%30.00 "Hg19 mi
9:00 AM48 °FPassing clouds.5 mph68%29.99 "Hg14 mi
8:00 AM45 °FOvercast.3 mph83%29.98 "Hg11 mi
7:00 AM44 °FRain showers. Overcast.3 mph87%29.97 "Hg9 mi
6:00 AM44 °FPassing clouds.2 mph86%29.96 "Hg14 mi
5:00 AM44 °FPassing clouds.2 mph84%29.96 "Hg16 mi
4:00 AM44 °FPassing clouds.2 mph86%29.95 "Hg15 mi
3:00 AM45 °FPassing clouds.1 mph85%29.94 "Hg16 mi
2:00 AM46 °FPassing clouds.2 mph84%29.95 "Hg17 mi
Weather by CustomWeather, © 2014

See weather overview